Location: Arrakis Observatory
(44.1122°N, 95.7153°W)
Time: 19:13:59
(UTC-05:00)

Iridium 35 - Visible Passes

Search period start: 16 October 2017 00:00
Search period end: 26 October 2017 00:00
Orbit: 776 x 779 km, 86.4° (Epoch: 16 October)

Date Brightness Start Highest point End Pass type
(mag) Time Alt. Az. Time Alt. Az. Time Alt. Az.
16 Oct 5.3 04:58:05 10° N 05:03:18 64° E 05:08:28 10° SSE visible
16 Oct 6.4 06:40:17 10° NW 06:43:26 16° WNW 06:46:34 10° WSW visible
17 Oct 6.4 04:24:51 10° NNE 04:29:38 35° E 04:30:09 35° E visible
17 Oct 5.8 06:05:48 10° NNW 06:10:13 28° W 06:10:27 28° W visible
17 Oct 8.0 19:06:24 10° WSW 19:09:19 15° WNW 19:12:15 10° NW visible
18 Oct 7.4 03:51:58 10° NNE 03:54:49 19° ENE 03:54:49 19° ENE visible
18 Oct 5.8 05:31:50 10° NNW 05:35:11 36° NW 05:35:11 36° NW visible
19 Oct 6.5 04:58:10 10° N 05:00:29 27° N 05:00:29 27° N visible
20 Oct 7.2 04:24:45 10° N 04:26:05 18° NNE 04:26:05 18° NNE visible
20 Oct 7.2 06:06:23 10° NNW 06:06:29 10° NW 06:06:29 10° NW visible
20 Oct 8.4 19:09:02 10° WNW 19:09:43 10° WNW 19:10:23 10° WNW visible
21 Oct 7.9 03:51:38 10° NNE 03:51:50 11° NNE 03:51:50 11° NNE visible
21 Oct 7.4 05:32:10 10° NNW 05:32:15 10° NNW 05:32:15 10° NNW visible
